Preview of NWS' New Version of Forecast
This preview is not operational and should not be used for support decisions.
Latest weather observations around

Auburn-Lewiston (KLEW)

Using English Units (Switch to International System of Units)
Date/ Time (EDT) Wind (mph) Vis. (mi) Weather Sky Cond. Temp (°F) Rel. Humidity Wind Chill (°F) Heat Index (°F) Pressure Precip. (in)
Air Dwpt 6 hour Altimeter (inHg) Sea level (inHg) 1 hr 3 hr 6 hr
Max Min
Oct 15 10:56 SSE 7 10 Mostly Cloudy BKN060 50        %     30.12 30.16      
Oct 15 09:56 Calm 10 Clear CLR 43        %     30.14 30.19      
Oct 15 08:56 3 10 Clear CLR 39        % 37   30.17 30.22      
Oct 15 07:56 Calm 7 Clear CLR 33        %     30.17 30.23      
Oct 15 06:56 Calm 4 Fog/Mist CLR 29        %     30.18 30.23      
Oct 15 05:56 Calm 7 Clear CLR 29        %     30.18 30.24      
Oct 15 04:56 Calm 6 Fog/Mist CLR 28        %     30.19 30.24      
Oct 15 03:56 Calm 7 Clear CLR 31        %     30.2 30.25      
Oct 15 02:56 Calm 4 Fog/Mist CLR 31        %     30.19 30.24      
Oct 15 01:56 Calm 7 Clear CLR 31        %     30.19 30.24      
Oct 15 00:56 Calm 6 Fog/Mist   33        %     30.2 30.25      
Oct 14 23:56 N 3 10 Clear CLR 33        % 30   30.2 30.25      
Oct 14 22:56 Calm 10 Clear CLR 36        %     30.2 30.25      
Oct 14 21:56 Calm 10 Clear CLR 38        %     30.19 30.24      
Oct 14 19:56 Calm 10 Clear CLR 42        %     30.16 30.21      
Oct 14 18:56 SSE 5 10 Clear CLR 47        % 45   30.15 30.2      
Oct 14 17:56 S 3 10 Clear CLR 51        %     30.14 30.19      
Oct 14 16:56 SSW 6 10 Clear CLR 55        %     30.12 30.17      
Oct 14 15:56 S 10 10 Clear CLR 55        %     30.12 30.17      
Oct 14 14:56 SSW 7 10 Clear CLR 54 34     47%     30.12 30.17      
Oct 14 13:56 SW 10 10 Clear CLR 54 34     47%     30.11 30.16      
Oct 14 12:56 WSW 9 10 Clear CLR 52 32     46%     30.12 30.17      
Oct 14 11:56 5 10 Clear CLR 51 31     46%     30.13 30.18      
Oct 14 10:56   10 Clear CLR 49 31     50%     30.14 30.19      
Oct 14 09:56 Calm 10 Clear CLR 46 32     58%     30.14 30.19      
Oct 14 08:56 E 3 10 Clear CLR 40 39     97% 38   30.14 30.19      
Oct 14 07:56 Calm 10 Clear CLR 32 31     96%     30.12 30.17      
Oct 14 06:56 Calm 10 Mostly Clear FEW001 28 27     96%     30.1 30.15      
Oct 14 05:56 S 3 10 Clear CLR 29 28     96% 25   30.08 30.12      
Oct 14 04:56 Calm 10 Clear CLR 30 28     92%     30.06 30.11      
Oct 14 03:56 Calm 10 Clear CLR 32 30     92%     30.05 30.1      
Oct 14 02:56 S 5 10 Clear CLR 37 31     78% 33   30.03 30.08      
Oct 14 01:56 Calm 10 Clear CLR 34 31     88%     30.01 30.06      
Oct 14 00:56 Calm 10 Clear CLR 37 32     82%     29.99 30.03      
Oct 13 23:56 Calm 10 Clear CLR 41 32     70%     29.97 30.02      
Oct 13 22:56 N 3 10 Clear CLR 40 36     86% 38   29.97 30.01      
Oct 13 21:56 Calm 10 Mostly Cloudy BKN060 39 39     100%     29.95 29.99      
Oct 13 20:56 Calm 10 Cloudy OVC055 40 40     100%     29.91 29.96      
Oct 13 19:56 3 10 Cloudy OVC060 39 39     100% 37   29.89 29.93     0
Oct 13 19:10 Calm 10 Mostly Cloudy BKN070 41 41     100%     29.86        
Oct 13 18:56 Calm 2.5 Fog/Mist BKN070 40 40     100%     29.85 29.91      
Oct 13 17:56 Calm 10 Clear CLR 44 41     89%     29.83 29.88 0    
Oct 13 16:56 WSW 8 10 Light Rain FEW022 BKN048 OVC060 46 41     82% 42   29.81 29.86 0 0  
Oct 13 15:56 W 6 10 Mostly Cloudy FEW018 BKN065 48 41     77% 45   29.8 29.85      
Oct 13 14:56 SSW 6 10 Mostly Clear FEW090 46 41     82% 43   29.78 29.83      
Oct 13 13:56 SW 6 10 Partly Cloudy FEW046 SCT090 46 41     82% 43   29.78 29.83 0   0
Oct 13 12:56 W 7 10 Light Rain OVC050 46 40     79% 42   29.78 29.83 0    
Oct 13 12:14 W 3 10 Light Rain FEW009 BKN039 OVC046 45 43     93% 43   29.79   0    
Oct 13 11:56 W 3 10 Light Rain OVC042 44 42     93% 43   29.79 29.84 0    
Oct 13 10:56 Calm 10 Light Rain SCT034 OVC045 43 41     93%     29.79 29.83 0 0  
Oct 13 09:56 NW 3 10 Light Rain OVC038 42 40     92% 40   29.78 29.83 0    
Oct 13 08:56 Calm 10 Cloudy OVC050 41 39     93%     29.78        
Oct 13 05:56 Calm 10 Mostly Clear FEW120 36 36     100%     29.73 29.78      
Oct 13 01:56 Calm 10 Clear CLR 36 35     96%     29.72 29.76      
Oct 13 00:56 Calm 10 Clear CLR 36 35     96%     29.71 29.76      
Oct 12 19:56   10 Clear CLR 49 32     52%     29.61 29.66      
Oct 12 18:56   10 Mostly Cloudy BKN050 51 33     50%     29.57 29.62      
Oct 12 16:56   10 Clear CLR 56 38     51%     29.51 29.56      
Oct 12 08:56 Calm 10 Cloudy OVC047 49 48     97%     29.54 29.59      
Oct 12 07:56 NNW 7 10 Mostly Cloudy FEW002 BKN120 48 47     96% 45   29.54 29.59     0
Oct 12 07:46 NNW 6 10 Partly Cloudy FEW002 SCT050 SCT120 48 46     93% 46   29.54        
Oct 12 07:17 NNW 3 10 Cloudy SCT026 OVC050 48 46     93% 47   29.55        
Oct 12 06:56 Calm 10 Cloudy BKN026 OVC050 48 47     96%     29.56        
Oct 12 05:23 NNW 6 10 Cloudy SCT006 OVC110 48 46     93% 46   29.53        
Notice The following observation data may not be complete
Oct 12 01:20   10 Cloudy OVC004          %         0    
Oct 11 23:56 N 9 5 Clear   47 47     100% 43   29.59 29.63 0    
Oct 11 21:56 N 8 10 Cloudy OVC006 48 47     96% 44   29.6 29.65      
Oct 11 17:56 N 9 10 Rain OVC006 49 49     100% 45   29.66 29.71 0    
Oct 11 16:22 N 7 10 Rain BKN006 BKN010 OVC024 50 48     94%     29.71   0    
Notice The following observation data may not be complete
Oct 11 14:40   9 Light Rain OVC006          %         0    
Oct 11 13:56 N 7 4 Light Rain and Fog/Mist OVC004 50 49     96%     29.76 29.81 0   0
Oct 11 12:56 N 9 9 Light Rain OVC004 50 49     96%     29.8   0    
Oct 11 12:15 N 9 8 Light Rain OVC004 50 48     94%     29.82   0    
Oct 11 10:56 N 7 6 Light Rain and Fog/Mist OVC006 50 49     96%     29.86   0 0  
Oct 11 08:18 N 3 9 Rain OVC006 48 48     100% 47   29.9   0    
Oct 11 02:56 NNE 9 3 Light Rain and Fog/Mist OVC004 50 50     100%     29.97 30 0    
Oct 11 02:54 NNE 8 2.5 Light Rain and Fog/Mist OVC004 50 50     100%     29.97   0    
Oct 11 00:36 5 4 Light Rain and Fog/Mist BKN006 OVC013 52 50     94%     29.99   0    
Notice The following observation data may not be complete
Oct 10 18:56 NE 9 10 Mostly Cloudy BKN060   61      %     29.94 29.98      
Notice The following observation data may not be complete
Oct 10 11:56   10 Clear CLR          %              
Oct 10 09:56 Calm 10 Clear CLR 73 66     79%   74 30.02 30.05      
Oct 10 08:56 Calm 10 Clear CLR 68 66     93%     30.02 30.06      
Notice The following observation data may not be complete
Oct 10 06:34   0.25 Fog BKN002          %              
Oct 10 06:24 Calm 0.5 Fog BKN002 59 59     100%     30.02        
Oct 10 06:21 Calm 1.75 Fog/Mist BKN002 59 59     100%     30.02        
Notice The following observation data may not be complete
Oct 10 06:05   0.75 Fog/Mist BKN002          %              
Oct 10 05:40 Calm 0.25 Fog VV002 61 61     100%     30.01        
Oct 10 05:08 Calm 0.5 Fog CLR 61 61     100%     30.02        
Oct 10 01:56 Calm 9 Clear CLR 64 63     96%     30.04 30.07      
Oct 09 20:56 SSE 7 10 Clear CLR 70 66     87%     30.1 30.14      
Oct 09 17:56 SSW 7 10 Clear CLR 74 67     79%   75 30.1 30.14      
Oct 09 04:56 SE 6 10 Cloudy OVC006 54 52     93%     30.27 30.32      
Oct 08 17:56 SSW 7 10 Cloudy OVC025 50 44     80%     30.46 30.51      
Oct 08 13:56 Calm 10 Cloudy BKN027 OVC034 51 40     65%     30.5 30.55      
Oct 08 13:03 NW 3 10 Cloudy OVC029 50 39     66%     30.52        
Oct 08 12:26 Calm 10 Cloudy SCT024 OVC033 48 39     71%     30.53        
Oct 08 11:56 5 10 Cloudy OVC024 49 40     71% 47   30.55        
Oct 08 08:41 ENE 6 10 Cloudy BKN018 BKN029 OVC041 46 39     76% 43   30.54        
Oct 08 07:56 NE 7 10 Cloudy OVC026 45 39     80% 41   30.54 30.59      
Oct 08 05:56 NE 6 10 Cloudy OVC024 45 38     76% 42   30.49 30.55      
Oct 08 04:56 NE 6 10 Cloudy OVC024 45 39     80% 42   30.48 30.53      
Oct 07 20:56   10 Cloudy OVC034 55 45     69%     30.35 30.4      
Oct 07 18:25 Calm 9 Cloudy BKN028 OVC033 57 52     82%     30.29        
Oct 07 17:56 Calm 10 Cloudy OVC033 57 51     81%     30.28        
Oct 07 15:56 NE 6 10 Cloudy FEW016 OVC031 58 52     81%     30.24 30.28      
Oct 07 15:46 ENE 8 10 Cloudy SCT016 OVC031 59 52     77%     30.23        
Oct 07 12:04 NE 10 10 Cloudy OVC010 61 57     88%     30.19        
Oct 07 10:56 NNE 8 10 Cloudy BKN008 OVC031 60 58     93%     30.18 30.22 0 0  
Oct 07 10:51 NNE 6 10 Cloudy BKN008 OVC031 59 57     94%     30.18   0    
Oct 07 07:34 Calm 10 Partly Cloudy SCT008 SCT110 55 54     94%     30.11        
Notice The following observation data may not be complete
Oct 07 00:06   10 Cloudy OVC014          %              
Oct 06 22:56 S 7 10 Cloudy OVC016 54 49     83%     30.14        
Oct 06 22:26 S 10 10 Cloudy BKN018 BKN037 OVC060 54 48     82%     30.14        
Notice The following observation data may not be complete
Oct 06 18:07   10 Cloudy OVC028          %              
Oct 06 12:56 SW 5 10 Clear CLR 59 42     53%     30.22 30.27      
Oct 06 11:56 3 10 Mostly Cloudy BKN080 57 40     53%     30.24 30.29      
Oct 06 05:56 Calm 10 Clear CLR 38 38     100%     30.24 30.29      
Oct 06 04:56 Calm 10 Partly Cloudy SCT120 40 40     100%     30.23 30.28      
Oct 06 00:56 Calm 10 Clear CLR 41 40     96%     30.24 30.28      
Oct 05 23:56 NNE 3 10 Clear CLR 43 42     97% 41   30.24 30.29      
Oct 05 19:56 Calm 10 Clear CLR 44 42     93%     30.22 30.27      
Oct 05 17:56 E 5 10 Clear CLR 52 41     66%     30.19 30.24      
Oct 05 16:56 NNE 5 10 Clear CLR 58 38     47%     30.18 30.23      
Oct 05 13:56 N 9 10 Clear CLR 56 36     47%     30.2 30.25      
Oct 05 12:56   10 Clear CLR 55 37     51%     30.22 30.27      
Oct 05 08:56   10 Clear CLR 47 37     68%     30.24 30.29      
Oct 05 07:56 N 9 10 Clear CLR 45 37     74% 40   30.22 30.27      
Oct 05 06:56 N 9 10 Clear CLR 44 37     76% 39   30.18 30.23      
Oct 05 05:56 N 11 10 Clear CLR 46 37     71% 41   30.15 30.2      
Oct 05 04:56 N 14 10 Clear CLR 48 39     71% 42   30.13 30.18      
Oct 05 03:56   10 Clear CLR 51 42     71%     30.08 30.13      
Oct 05 02:56   10 Clear CLR 55 48     77%     30.04 30.08      
Oct 05 01:56 NNW 5 10 Clear CLR 56 52     87%     30.02 30.07      
Oct 05 00:56 N 11 10 Clear CLR 58        %     30 30.04      
Oct 04 23:56 N 6 7 Mostly Clear FEW001 59        %     29.98 30.02      
Oct 04 23:49 NNW 6 5 Fog/Mist FEW001 SCT039 BKN049 57        %     29.97        
Oct 04 23:39 N 6 3 Fog/Mist BKN001 BKN049 57        %     29.97        
Oct 04 23:32 NNE 6 1.25 Fog/Mist BKN001 OVC049 57        %     29.97        
Oct 04 23:26 NW 3 0.75 Fog/Mist BKN001 OVC049 57        %     29.96        
Oct 04 22:56 Calm 0.25 Fog BKN001 OVC065 57        %     29.94 29.98      
Oct 04 22:06 Calm 0.25 Fog BKN001 57        %     29.91        
Oct 04 21:56 Calm 0.25 Fog VV002 58        %     29.91 29.95      
Oct 04 21:49 Calm 0.75 Fog/Mist VV003 59        %     29.91        
Oct 04 21:47 Calm 1.25 Fog/Mist FEW003 59        %     29.91        
Oct 04 21:39 Calm 0.75 Fog/Mist VV003 59        %     29.91        
Oct 04 21:22 Calm 0.25 Fog VV002 59        %     29.9        
Oct 04 21:12 Calm 0.5 Fog CLR 61        %     29.9        
Oct 04 21:04 Calm 0.75 Fog/Mist CLR 61        %     29.9        
Oct 04 21:01 Calm 1.5 Fog/Mist CLR 61        %     29.9        
Oct 04 20:56 Calm 4 Fog/Mist CLR 60        %     29.9 29.94      
Oct 04 19:56 Calm 10 Cloudy FEW022 SCT045 OVC055 63        %     29.89 29.93      
Oct 04 19:54 Calm 10 Cloudy SCT022 SCT045 OVC055 63        %     29.89        
Oct 04 19:18 ESE 3 10 Cloudy BKN022 OVC050 63        %     29.88        
Oct 04 18:56 SE 5 10 Cloudy SCT033 OVC050 63        %     29.87 29.91      
Oct 04 17:56 S 6 10 Cloudy FEW012 OVC039 65        %     29.86 29.9      
Oct 04 17:30 S 8 10 Partly Cloudy SCT012 SCT045 64        %     29.86        
Oct 04 16:56 S 10 10 Cloudy OVC012 64        %     29.85 29.89      
Oct 04 16:48 S 7 10 Cloudy OVC012 64        %     29.85        
Oct 04 16:14 S 8 10 Clear   64        %     29.85        
Oct 04 16:05   10 Mostly Cloudy BKN010 64        %     29.86        
Oct 04 15:56   10 Clear   63        %     29.86 29.9      
Oct 04 15:31 S 7 10 Clear   63        %     29.87        
Oct 04 14:56 S 11 10 Cloudy OVC013 63        %     29.87 29.91      
Oct 04 13:56 S 10 10 Cloudy OVC013 63        %     29.88 29.93      
Oct 04 12:56 S 7 10 Cloudy OVC015 63        %     29.9 29.94      
Oct 04 11:56 S 9 10 Cloudy OVC017 63        %     29.94 29.98      
Oct 04 11:07 S 10 10 Cloudy OVC015 63        %     29.95        
Oct 04 10:56 S 7 10 Cloudy OVC013 62        %     29.96 30.01      
Oct 04 09:56   10 Cloudy OVC011 61        %     29.99 30.03      
Oct 04 09:47   10 Cloudy OVC011 61        %     29.98        
Oct 04 08:56 SSE 8 10 Cloudy OVC007 58        %     30 30.04      
Oct 04 08:07 S 8 10 Cloudy BKN007 BKN015 OVC020 57        %     30        
Oct 04 07:56 S 7 10 Cloudy BKN005 OVC017 57        %     30 30.05      
Oct 04 07:51 S 9 10 Cloudy OVC005 55        %     30        
Oct 04 06:56 SSE 7 7 Cloudy OVC004 55 55     100%     30 30.05      
Oct 04 06:08 S 9 10 Cloudy OVC004 55 54     94%     30.01        
Oct 04 05:56 S 7 10 Cloudy OVC006 55 54     96%     30.02 30.06      
Oct 04 05:21 S 5 10 Cloudy BKN008 OVC011 55 54     94%     30.02        
Oct 04 05:11 S 5 10 Cloudy OVC010 55 54     94%     30.02        
Oct 04 04:56 S 6 10 Cloudy BKN008 OVC017 55 54     96%     30.02 30.06      
Oct 04 04:46 S 8 10 Cloudy SCT008 OVC019 55 54     94%     30.03        
Oct 04 03:56 S 6 10 Cloudy FEW011 OVC021 55 54     96%     30.04 30.08      
Oct 04 02:56 S 5 10 Cloudy OVC021 55 54     96%     30.04 30.09      
Oct 04 01:56 S 3 10 Cloudy OVC021 55 54     96%     30.06 30.11      
Oct 04 00:56 SE 3 10 Cloudy FEW006 OVC023 55 54     96%     30.07 30.11      
Oct 04 00:42 Calm 10 Cloudy FEW006 OVC021 55 54     94%     30.07        
Oct 03 23:56 SSE 5 10 Cloudy OVC021 55 54     96%     30.09 30.13      
Oct 03 22:56 SE 5 10 Cloudy OVC023 56 54     93%     30.1 30.15      
Oct 03 21:56 E 3 10 Clear   56 54     93%     30.12 30.16      
Sep 25 09:56 N 3 10 Clear CLR 47 42     83% 46   30.58 30.63      
Sep 25 08:56 Calm 10 Clear CLR 42 40     92%     30.59 30.64      
May 15 08:56 Calm 10 Mostly Cloudy BKN100 61 53     75%     29.77        
May 15 05:56 Calm 10 Clear CLR 45 44     97%     29.79 29.84      
May 15 03:03 SSE 6 1.75 Fog/Mist CLR 46 46     100% 43   29.83        
May 14 19:56 SSE 8 10 Clear CLR 58 51     78%     29.83 29.88     0
May 14 18:56 S 10 10 Clear CLR 61 52     72%     29.82 29.87      
May 13 15:56 S 15 10 Clear CLR 63 36     37%     30.11 30.16      
May 12 16:56 SSE 13 10 Clear CLR 55 30     38%     30.09 30.14      
May 12 08:56 5 10 Clear CLR 51 28     41%     30.24 30.29      
May 12 01:56 Calm 10 Clear CLR 34 27     75%     30.18 30.23      
May 11 22:56 N 3 10 Clear CLR 46 25     43% 45   30.15        
May 11 20:56 N 8 10 Clear CLR 51 19     28%     30.09 30.14      
May 11 13:56 N 16 10 Clear CLR 59 27     29%     29.95 30      
Jun 11 23:56 Calm 10 Clear CLR 75 61     62%   75 29.87 29.9      
Jun 11 19:56 SW 8 10 Clear   85 61     45%   85 29.8 29.82      
Jun 11 12:56   10 Clear CLR 87 61     42%   87 29.81 29.84      
Jun 11 11:56 SW 11 10 Clear   84 62     48%   85 29.85 29.88      
Jun 11 10:56 S 13 10 Clear   82 64     55%   84 29.87 29.9      
Jun 11 08:56 SW 9 10 Clear CLR 77 62     60%   77 29.9 29.94      
Jun 10 04:56 Calm 10 Clear CLR 51 50     96%     29.86 29.9      
Jun 09 21:56 WSW 6 10 Clear CLR 66 52     61%     29.69 29.73      
Jun 09 13:56 Calm 10 Rain   57 51     81%     29.63   0   0
Jun 09 12:56 WNW 3 10 Light Rain FEW041 BKN065 OVC075 61 46     58%     29.64 29.68 0    
Jun 09 05:56 Calm 10 Mostly Clear FEW120 50 47     89%     29.71 29.75      
Jun 08 19:56 SSE 8 10 Clear CLR 63 42     46%     29.9 29.94      
Notice The following observation data may not be complete
Jun 06 09:06   10 Light Rain            %         0    
Jun 06 04:56 NNE 7 10 Light Rain FEW019 OVC060 49 46     90% 46   29.93 29.98 0 0  
Jun 06 00:56 NE 7 10 Cloudy OVC055 50 46     86% 47   29.96 30.01